SCP
0 0 0 0 0 0 0 -0 -0 -0 -0 -0 -0 -0 -0 0 0 0 0 -0 -0 -0 -0 -0 -0 -0 -0 -0 -0 -0 -0 -0 -0 -0 -0 -0 -0 -0 -0 0 -0 -0 -0
0 0 0 0 0 0 0 0 -0 -0 -0 -0 -0 -0 -0 -0 0 0 0 -0 -0 -0 -0 -0 -0 -0 -0 -0 -0 -0 -0 -0 -0 -0 -0 -0 -0 -0 -0 -0 -0 -0 -0
0 0 0 0 0 0 0 0 0 -0 -0 -0 -0 -0 -0 -0 0 0 0 0 -0 -0 -0 -0 -0 -0 -0 -0 -0 -0 -0 -0 -0 -0 -0 0 -0 -0 -0 -0 -0 -0 -0
0 1 0 0 0 0 0 0 0 0 0 0 0 0 0 0 0 0 0 0 -0 -0 -0 -0 -0 -0 -0 -0 -0 -0 -0 -0 -0 -0 -0 0 -0 -0 -0 -0 -0 -0 0
0 1 0 0 0 0 0 0 0 0 0 0 0 0 0 0 0 0 0 0 0 -0 -0 -0 -0 -0 -0 -0 -0 -0 -0 0 -0 -0 0 0 -0 0 -0 0 0 -0 -0
0 1 0 0 0 0 0 0 0 0 0 0 0 0 0 0 0 0 0 0 0 0 -0 0 -0 -0 -0 -0 -0 -0 0 -0 -0 0 0 0 -0 -0 0 0 0 0 -0
0 1 1 1 0 0 0 0 0 0 0 0 0 0 0 0 0 0 0 0 0 0 0 0 0 -0 0 0 0 0 0 -0 -0 0 0 -0 -0 0 0 0 0 0 0
0 1 1 1 1 0 0 0 0 0 0 0 0 0 0 0 0 0 0 0 0 0 0 0 0 0 0 0 0 0 0 -0 0 0 0 0 0 0 0 -0 -0 -0 0
1 1 1 1 0 0 0 0 0 0 0 0 0 0 0 0 0 0 0 0 0 0 0 0 0 0 0 0 0 0 0 -0 -0 0 0 0 0 0 0 0 -0 -0 -0
1 1 1 1 1 0 0 0 0 0 0 0 0 0 0 0 0 0 0 0 0 0 0 0 0 0 0 0 0 0 0 -0 0 0 0 0 0 0 -0 0 0 0 0
1 1 0 1 1 0 0 0 0 0 0 0 0 0 0 0 0 0 0 0 0 0 0 0 0 0 0 0 0 0 0 0 0 0 0 0 0 0 -0 -0 -0 -0 -0
1 0 0 0 1 0 0 0 0 0 0 0 0 0 0 0 0 0 0 0 0 0 0 0 0 0 0 0 0 0 0 0 0 0 0 0 0 0 0 -0 -0 0 0
1 1 0 0 1 1 0 0 0 0 0 0 0 0 0 0 0 0 0 0 0 0 0 0 0 0 0 0 0 0 0 0 0 0 0 0 0 0 0 0 0 0 0
0 1 0 0 1 1 0 0 0 0 0 0 0 0 0 0 0 0 0 0 0 0 0 0 0 0 0 0 0 0 0 0 0 0 0 0 0 0 0 0 0 0 0
0 0 1 0 1 1 0 0 1 1 1 0 0 0 0 0 0 0 0 0 0 0 0 0 0 0 0 0 0 0 0 0 0 0 0 0 0 0 0 0 0 0 0
0 0 0 0 1 1 0 0 1 0 0 1 0 0 0 0 0 0 0 0 0 0 0 0 0 0 0 0 0 0 0 0 0 0 0 0 0 0 0 0 0 0 0
0 0 0 0 1 1 0 0 0 0 0 0 0 0 0 0 0 0 0 0 0 0 0 0 0 0 0 0 0 0 0 0 0 0 0 0 0 0 0 0 0 0 0
0 0 0 0 0 0 0 0 0 0 0 0 0 0 0 0 0 0 0 0 0 0 0 0 0 0 0 0 0 0 0 0 0 0 0 0 0 0 0 0 0 0 0
0 0 0 0 0 0 0 0 0 0 0 0 0 0 0 0 0 0 0 0 0 0 0 0 0 0 0 0 0 0 0 0 0 0 0 0 0 0 0 0 0 0 0
0 0 0 0 0 0 0 0 0 0 0 0 0 0 0 0 0 0 0 0 0 0 0 0 0 0 0 0 0 0 0 0 0 0 0 0 0 0 0 0 0 0 0
0 0 0 0 0 0 0 0 0 0 0 0 0 0 0 0 0 0 0 0 0 0 0 0 0 0 0 0 0 0 0 0 0 0 0 0 0 0 0 0 0 0 0
0 0 0 0 0 0 0 0 0 0 0 0 0 0 0 0 0 0 0 0 0 0 0 0 0 0 0 0 0 0 0 0 0 0 0 0 0 0 0 0 0 0 0
0 0 0 0 0 0 0 0 0 0 0 0 0 0 0 0 0 0 0 0 0 0 0 0 0 0 0 0 0 0 0 0 0 0 0 0 0 0 0 0 0 0 0
0 0 0 0 0 0 0 0 0 0 0 0 0 0 0 0 0 0 0 0 0 0 0 0 0 0 0 0 0 0 0 0 0 0 0 0 0 0 0 0 0 0 0
0 0 0 0 0 0 0 0 0 0 0 0 0 0 0 0 0 0 0 0 0 0 0 0 0 0 0 0 0 0 0 0 0 0 0 0 0 0 0 0 0 0 0
0 0 0 0 0 0 0 0 0 0 0 0 0 0 0 0 0 0 0 0 0 0 0 0 0 0 0 0 0 0 0 0 0 0 0 0 0 0 0 0 0 0 0
Wind_Speed_500mb
25 41 46 44 44 43 39 36 37 37 38 35 32 26 25 27 30 29 27 20 15 24 26 28 29 33 31 30 25 30 29 31 36 31 31 28 26 26 32 37 29 24 23
28 42 46 45 45 45 40 38 38 38 38 37 33 27 25 24 26 23 21 19 16 27 32 24 26 26 26 28 22 33 31 28 34 32 28 28 30 28 29 31 27 24 24
35 43 49 47 46 44 43 40 39 37 38 38 33 27 25 24 23 21 18 22 18 21 31 29 23 33 25 29 24 30 30 31 33 36 35 18 22 23 23 23 24 23 21
38 45 50 49 47 46 44 42 40 38 38 36 31 27 26 25 22 23 27 30 30 23 26 21 21 28 27 23 25 24 24 26 26 33 20 17 16 19 20 20 20 22 20
39 45 49 49 48 48 47 43 40 39 37 33 30 28 28 27 22 19 18 22 23 25 24 20 24 25 23 21 20 19 20 22 24 22 19 16 10 16 17 19 19 17 21
41 46 53 50 48 48 47 44 42 41 38 35 30 29 29 27 21 16 15 17 29 25 21 22 25 24 23 22 20 20 21 24 25 14 14 25 12 16 18 19 20 24 25
45 52 53 51 49 46 46 45 42 41 39 37 32 33 31 26 21 16 13 18 28 28 21 25 24 22 20 20 18 19 20 22 21 13 13 11 9 15 17 19 22 24 25
48 51 53 50 49 48 46 44 42 41 39 38 37 35 35 26 23 16 13 19 26 30 17 21 22 22 19 18 17 17 17 18 12 11 13 9 11 13 14 17 19 18 19
48 49 47 53 49 47 45 44 43 43 41 40 38 37 37 30 26 20 13 19 23 24 21 21 21 20 18 16 14 14 14 15 12 7 8 2 10 16 16 16 14 14 12
43 53 51 53 53 50 46 44 43 44 44 44 42 41 40 34 30 21 17 17 21 23 20 22 21 19 16 14 12 12 12 13 7 6 7 11 12 17 8 7 11 9 9
37 55 51 55 55 52 47 47 46 46 45 46 46 44 42 39 35 25 20 16 19 24 22 22 21 18 15 13 12 11 10 6 5 5 4 8 8 10 13 13 15 12 10
41 50 53 52 56 53 44 45 49 48 50 51 50 49 45 42 40 30 28 22 19 24 24 24 22 19 16 13 13 11 7 10 7 6 11 7 9 5 9 12 16 12 14
37 45 52 56 54 56 54 47 49 40 47 51 50 52 50 43 45 34 34 28 23 27 28 27 24 21 18 14 13 7 12 10 9 7 14 9 8 5 5 12 19 15 14
32 46 54 59 59 56 54 53 48 44 47 53 52 52 57 57 46 35 30 26 29 31 27 28 26 21 22 20 17 15 13 10 10 9 20 14 14 13 8 15 16 17 14
34 41 52 65 68 60 62 55 54 55 55 53 53 57 61 53 46 38 33 30 29 31 35 31 25 25 22 21 18 16 15 14 15 11 19 19 22 19 14 13 15 16 12
34 40 48 62 64 73 60 54 59 60 60 57 53 58 55 51 42 37 35 34 33 33 34 33 28 23 22 21 21 18 17 16 14 20 15 7 13 22 23 18 16 16 11
28 38 37 59 69 69 63 60 57 65 66 65 54 59 63 45 42 37 34 34 33 35 36 34 30 25 21 19 18 18 16 17 20 18 17 14 11 13 23 21 24 22 17
35 31 46 53 78 72 63 65 64 69 71 72 66 66 63 53 43 43 37 33 35 37 40 36 33 28 24 21 19 19 19 20 20 20 17 18 15 14 20 22 29 24 19
40 38 43 51 82 75 60 57 67 67 73 71 66 64 62 57 50 45 39 36 37 40 40 37 32 31 29 27 23 21 22 24 24 24 27 26 25 21 17 20 21 23 21
41 38 41 44 55 59 62 61 77 68 66 68 73 70 69 65 60 52 44 40 42 44 43 42 35 35 30 29 25 25 23 22 28 34 36 28 29 28 22 22 24 23 22
41 40 39 49 47 67 71 72 80 76 71 67 76 79 71 65 62 56 51 45 46 47 49 45 41 34 36 34 30 32 36 38 38 42 36 35 34 32 30 29 29 24 23
41 39 39 50 52 68 77 69 77 70 71 79 77 79 75 72 68 64 58 53 51 49 52 49 45 41 40 46 38 32 19 34 39 37 40 41 40 37 37 35 33 31 28
42 46 44 49 50 68 59 62 57 65 74 62 67 81 83 74 76 74 67 60 55 54 57 57 55 51 50 51 47 27 18 19 32 48 49 47 45 43 42 41 39 38 36
49 52 48 50 61 63 62 61 66 67 68 68 73 84 90 86 80 78 72 65 62 58 56 58 59 58 56 55 55 61 38 17 20 19 48 51 49 49 47 45 45 42 42
45 46 45 51 61 69 63 58 63 77 62 68 81 78 80 81 89 83 80 72 68 66 62 63 62 62 63 63 58 65 66 51 38 20 25 42 53 52 50 50 50 48 48
42 43 44 46 57 56 65 63 68 61 70 80 87 77 81 84 88 90 84 77 74 72 68 69 68 65 69 70 70 62 68 70 71 58 41 41 42 46 49 52 53 55 50
Wind_Direction_500mb
184 189 183 177 175 175 173 174 178 176 171 168 162 153 144 144 144 142 148 144 145 143 129 143 135 132 131 120 120 119 122 114 120 118 125 122 127 130 110 98 91 97 97
185 199 184 180 177 176 176 177 178 176 173 172 166 159 152 152 153 158 163 161 167 135 132 125 133 131 132 137 122 123 115 114 108 101 100 107 112 123 116 114 110 102 103
175 202 183 183 180 178 178 177 180 180 178 174 170 164 157 154 154 158 167 142 133 144 151 147 138 139 140 137 134 133 122 120 109 94 85 90 102 103 120 106 98 93 91
175 199 187 185 183 178 179 182 185 183 183 180 179 175 164 155 152 144 139 144 149 145 146 150 141 148 148 146 139 133 131 128 117 93 99 102 101 100 98 98 99 100 98
187 194 192 185 186 182 182 184 187 188 189 188 188 183 172 164 149 147 155 157 165 149 149 157 147 145 147 149 145 142 136 130 122 101 112 100 94 103 99 103 102 96 107
195 190 195 189 189 189 186 186 188 190 189 190 192 187 177 169 156 150 171 161 155 165 162 152 146 146 144 139 138 140 135 127 95 109 119 120 156 112 100 99 102 99 103
198 194 195 192 191 193 191 188 189 189 189 193 185 184 181 172 162 166 173 169 167 157 170 153 148 150 151 145 140 141 139 131 111 125 112 110 144 119 109 108 109 108 107
197 196 197 195 192 196 197 193 192 190 192 189 188 190 188 184 178 176 165 173 164 173 166 159 154 154 153 152 150 146 140 133 112 137 134 175 154 124 122 119 113 110 113
196 190 197 195 193 197 200 200 196 197 197 197 194 195 194 192 196 182 175 175 181 184 184 171 163 162 162 160 155 153 146 133 117 157 123 33 148 125 110 130 118 117 120
198 194 202 196 195 197 200 205 203 205 203 205 200 198 199 197 204 196 194 186 195 199 191 182 176 173 170 170 166 164 154 137 123 112 125 217 154 142 147 168 177 170 156
216 203 199 198 200 199 202 204 205 209 208 208 205 202 201 202 203 204 209 210 208 203 199 191 188 186 185 186 185 178 162 117 162 154 212 191 182 189 180 189 182 175 182
218 214 207 203 200 199 196 206 203 209 207 207 203 200 201 205 204 201 211 215 225 201 198 198 196 195 196 206 207 196 146 206 182 166 242 184 164 158 185 182 173 164 136
236 224 219 210 204 203 199 205 200 204 202 204 200 198 198 201 205 190 209 211 207 199 203 203 202 202 194 198 231 201 208 201 205 194 237 198 142 125 181 181 178 182 181
247 239 228 220 208 208 207 201 199 197 201 200 199 197 196 201 205 191 214 209 205 207 202 206 208 202 213 203 212 210 204 196 200 195 257 216 179 168 190 174 185 191 193
249 250 235 226 221 209 204 205 195 199 202 199 198 198 199 200 206 196 203 198 221 208 202 205 205 215 214 219 223 218 220 204 207 195 247 234 218 184 177 186 185 184 204
252 249 238 230 225 224 214 223 211 206 205 202 200 203 204 202 211 204 205 204 205 208 207 207 204 212 219 224 223 221 217 211 208 216 239 239 183 191 188 190 178 188 210
254 261 248 231 226 225 230 232 224 215 209 205 207 208 203 198 211 207 210 211 209 210 205 207 202 204 211 219 217 221 213 210 211 225 224 227 210 210 203 216 209 203 207
258 249 250 236 231 225 218 229 232 219 217 211 212 214 215 213 210 214 217 215 212 215 210 209 206 203 205 210 205 213 217 220 216 217 217 223 236 227 219 218 204 211 212
250 253 248 249 238 229 223 232 238 228 218 216 212 218 217 212 213 219 221 223 220 217 212 209 208 206 204 202 200 212 221 218 215 214 224 223 230 239 223 216 213 216 224
244 250 251 246 231 233 225 229 226 220 217 215 218 216 219 216 218 222 226 226 226 220 215 212 208 209 205 198 201 214 217 215 222 218 222 227 234 235 232 217 219 222 230
246 250 249 249 234 228 229 222 223 227 229 212 222 227 226 225 226 227 229 232 231 226 223 219 213 211 198 201 202 209 216 222 223 232 230 232 234 232 228 226 229 230 234
240 244 245 244 239 231 220 225 226 235 234 222 225 231 228 230 232 232 231 237 237 229 224 220 214 209 210 210 197 206 219 236 234 231 230 235 236 235 234 233 235 239 243
239 245 234 240 232 222 221 225 233 233 227 223 230 236 233 231 235 233 234 236 238 234 230 225 220 208 211 221 205 196 214 222 226 232 235 237 237 238 239 240 244 247 248
234 239 231 229 226 229 221 224 228 227 225 235 232 229 232 231 236 236 235 235 238 239 234 230 223 219 213 220 221 213 209 229 199 218 234 234 237 242 244 245 247 253 250
233 230 226 228 227 224 230 227 230 230 228 238 230 228 234 235 245 236 234 234 238 240 236 232 230 224 223 221 227 223 224 225 234 236 230 233 237 239 242 249 252 251 249
229 225 221 220 227 228 219 227 232 248 247 244 240 239 232 236 243 239 235 234 239 240 240 238 235 233 231 229 231 235 232 231 236 241 242 250 246 244 248 248 256 250 250
Wind_Speed_850mb
25 41 46 44 44 43 39 36 37 37 38 35 32 26 25 27 30 29 27 20 15 24 26 28 29 33 31 30 25 30 29 31 36 31 31 28 26 26 32 37 29 24 23
28 42 46 45 45 45 40 38 38 38 38 37 33 27 25 24 26 23 21 19 16 27 32 24 26 26 26 28 22 33 31 28 34 32 28 28 30 28 29 31 27 24 24
35 43 49 47 46 44 43 40 39 37 38 38 33 27 25 24 23 21 18 22 18 21 31 29 23 33 25 29 24 30 30 31 33 36 35 18 22 23 23 23 24 23 21
38 45 50 49 47 46 44 42 40 38 38 36 31 27 26 25 22 23 27 30 30 23 26 21 21 28 27 23 25 24 24 26 26 33 20 17 16 19 20 20 20 22 20
39 45 49 49 48 48 47 43 40 39 37 33 30 28 28 27 22 19 18 22 23 25 24 20 24 25 23 21 20 19 20 22 24 22 19 16 10 16 17 19 19 17 21
41 46 53 50 48 48 47 44 42 41 38 35 30 29 29 27 21 16 15 17 29 25 21 22 25 24 23 22 20 20 21 24 25 14 14 25 12 16 18 19 20 24 25
45 52 53 51 49 46 46 45 42 41 39 37 32 33 31 26 21 16 13 18 28 28 21 25 24 22 20 20 18 19 20 22 21 13 13 11 9 15 17 19 22 24 25
48 51 53 50 49 48 46 44 42 41 39 38 37 35 35 26 23 16 13 19 26 30 17 21 22 22 19 18 17 17 17 18 12 11 13 9 11 13 14 17 19 18 19
48 49 47 53 49 47 45 44 43 43 41 40 38 37 37 30 26 20 13 19 23 24 21 21 21 20 18 16 14 14 14 15 12 7 8 2 10 16 16 16 14 14 12
43 53 51 53 53 50 46 44 43 44 44 44 42 41 40 34 30 21 17 17 21 23 20 22 21 19 16 14 12 12 12 13 7 6 7 11 12 17 8 7 11 9 9
37 55 51 55 55 52 47 47 46 46 45 46 46 44 42 39 35 25 20 16 19 24 22 22 21 18 15 13 12 11 10 6 5 5 4 8 8 10 13 13 15 12 10
41 50 53 52 56 53 44 45 49 48 50 51 50 49 45 42 40 30 28 22 19 24 24 24 22 19 16 13 13 11 7 10 7 6 11 7 9 5 9 12 16 12 14
37 45 52 56 54 56 54 47 49 40 47 51 50 52 50 43 45 34 34 28 23 27 28 27 24 21 18 14 13 7 12 10 9 7 14 9 8 5 5 12 19 15 14
32 46 54 59 59 56 54 53 48 44 47 53 52 52 57 57 46 35 30 26 29 31 27 28 26 21 22 20 17 15 13 10 10 9 20 14 14 13 8 15 16 17 14
34 41 52 65 68 60 62 55 54 55 55 53 53 57 61 53 46 38 33 30 29 31 35 31 25 25 22 21 18 16 15 14 15 11 19 19 22 19 14 13 15 16 12
34 40 48 62 64 73 60 54 59 60 60 57 53 58 55 51 42 37 35 34 33 33 34 33 28 23 22 21 21 18 17 16 14 20 15 7 13 22 23 18 16 16 11
28 38 37 59 69 69 63 60 57 65 66 65 54 59 63 45 42 37 34 34 33 35 36 34 30 25 21 19 18 18 16 17 20 18 17 14 11 13 23 21 24 22 17
35 31 46 53 78 72 63 65 64 69 71 72 66 66 63 53 43 43 37 33 35 37 40 36 33 28 24 21 19 19 19 20 20 20 17 18 15 14 20 22 29 24 19
40 38 43 51 82 75 60 57 67 67 73 71 66 64 62 57 50 45 39 36 37 40 40 37 32 31 29 27 23 21 22 24 24 24 27 26 25 21 17 20 21 23 21
41 38 41 44 55 59 62 61 77 68 66 68 73 70 69 65 60 52 44 40 42 44 43 42 35 35 30 29 25 25 23 22 28 34 36 28 29 28 22 22 24 23 22
41 40 39 49 47 67 71 72 80 76 71 67 76 79 71 65 62 56 51 45 46 47 49 45 41 34 36 34 30 32 36 38 38 42 36 35 34 32 30 29 29 24 23
41 39 39 50 52 68 77 69 77 70 71 79 77 79 75 72 68 64 58 53 51 49 52 49 45 41 40 46 38 32 19 34 39 37 40 41 40 37 37 35 33 31 28
42 46 44 49 50 68 59 62 57 65 74 62 67 81 83 74 76 74 67 60 55 54 57 57 55 51 50 51 47 27 18 19 32 48 49 47 45 43 42 41 39 38 36
49 52 48 50 61 63 62 61 66 67 68 68 73 84 90 86 80 78 72 65 62 58 56 58 59 58 56 55 55 61 38 17 20 19 48 51 49 49 47 45 45 42 42
45 46 45 51 61 69 63 58 63 77 62 68 81 78 80 81 89 83 80 72 68 66 62 63 62 62 63 63 58 65 66 51 38 20 25 42 53 52 50 50 50 48 48
42 43 44 46 57 56 65 63 68 61 70 80 87 77 81 84 88 90 84 77 74 72 68 69 68 65 69 70 70 62 68 70 71 58 41 41 42 46 49 52 53 55 50
Wind_Direction_850mb
184 189 183 177 175 175 173 174 178 176 171 168 162 153 144 144 144 142 148 144 145 143 129 143 135 132 131 120 120 119 122 114 120 118 125 122 127 130 110 98 91 97 97
185 199 184 180 177 176 176 177 178 176 173 172 166 159 152 152 153 158 163 161 167 135 132 125 133 131 132 137 122 123 115 114 108 101 100 107 112 123 116 114 110 102 103
175 202 183 183 180 178 178 177 180 180 178 174 170 164 157 154 154 158 167 142 133 144 151 147 138 139 140 137 134 133 122 120 109 94 85 90 102 103 120 106 98 93 91
175 199 187 185 183 178 179 182 185 183 183 180 179 175 164 155 152 144 139 144 149 145 146 150 141 148 148 146 139 133 131 128 117 93 99 102 101 100 98 98 99 100 98
187 194 192 185 186 182 182 184 187 188 189 188 188 183 172 164 149 147 155 157 165 149 149 157 147 145 147 149 145 142 136 130 122 101 112 100 94 103 99 103 102 96 107
195 190 195 189 189 189 186 186 188 190 189 190 192 187 177 169 156 150 171 161 155 165 162 152 146 146 144 139 138 140 135 127 95 109 119 120 156 112 100 99 102 99 103
198 194 195 192 191 193 191 188 189 189 189 193 185 184 181 172 162 166 173 169 167 157 170 153 148 150 151 145 140 141 139 131 111 125 112 110 144 119 109 108 109 108 107
197 196 197 195 192 196 197 193 192 190 192 189 188 190 188 184 178 176 165 173 164 173 166 159 154 154 153 152 150 146 140 133 112 137 134 175 154 124 122 119 113 110 113
196 190 197 195 193 197 200 200 196 197 197 197 194 195 194 192 196 182 175 175 181 184 184 171 163 162 162 160 155 153 146 133 117 157 123 33 148 125 110 130 118 117 120
198 194 202 196 195 197 200 205 203 205 203 205 200 198 199 197 204 196 194 186 195 199 191 182 176 173 170 170 166 164 154 137 123 112 125 217 154 142 147 168 177 170 156
216 203 199 198 200 199 202 204 205 209 208 208 205 202 201 202 203 204 209 210 208 203 199 191 188 186 185 186 185 178 162 117 162 154 212 191 182 189 180 189 182 175 182
218 214 207 203 200 199 196 206 203 209 207 207 203 200 201 205 204 201 211 215 225 201 198 198 196 195 196 206 207 196 146 206 182 166 242 184 164 158 185 182 173 164 136
236 224 219 210 204 203 199 205 200 204 202 204 200 198 198 201 205 190 209 211 207 199 203 203 202 202 194 198 231 201 208 201 205 194 237 198 142 125 181 181 178 182 181
247 239 228 220 208 208 207 201 199 197 201 200 199 197 196 201 205 191 214 209 205 207 202 206 208 202 213 203 212 210 204 196 200 195 257 216 179 168 190 174 185 191 193
249 250 235 226 221 209 204 205 195 199 202 199 198 198 199 200 206 196 203 198 221 208 202 205 205 215 214 219 223 218 220 204 207 195 247 234 218 184 177 186 185 184 204
252 249 238 230 225 224 214 223 211 206 205 202 200 203 204 202 211 204 205 204 205 208 207 207 204 212 219 224 223 221 217 211 208 216 239 239 183 191 188 190 178 188 210
254 261 248 231 226 225 230 232 224 215 209 205 207 208 203 198 211 207 210 211 209 210 205 207 202 204 211 219 217 221 213 210 211 225 224 227 210 210 203 216 209 203 207
258 249 250 236 231 225 218 229 232 219 217 211 212 214 215 213 210 214 217 215 212 215 210 209 206 203 205 210 205 213 217 220 216 217 217 223 236 227 219 218 204 211 212
250 253 248 249 238 229 223 232 238 228 218 216 212 218 217 212 213 219 221 223 220 217 212 209 208 206 204 202 200 212 221 218 215 214 224 223 230 239 223 216 213 216 224
244 250 251 246 231 233 225 229 226 220 217 215 218 216 219 216 218 222 226 226 226 220 215 212 208 209 205 198 201 214 217 215 222 218 222 227 234 235 232 217 219 222 230
246 250 249 249 234 228 229 222 223 227 229 212 222 227 226 225 226 227 229 232 231 226 223 219 213 211 198 201 202 209 216 222 223 232 230 232 234 232 228 226 229 230 234
240 244 245 244 239 231 220 225 226 235 234 222 225 231 228 230 232 232 231 237 237 229 224 220 214 209 210 210 197 206 219 236 234 231 230 235 236 235 234 233 235 239 243
239 245 234 240 232 222 221 225 233 233 227 223 230 236 233 231 235 233 234 236 238 234 230 225 220 208 211 221 205 196 214 222 226 232 235 237 237 238 239 240 244 247 248
234 239 231 229 226 229 221 224 228 227 225 235 232 229 232 231 236 236 235 235 238 239 234 230 223 219 213 220 221 213 209 229 199 218 234 234 237 242 244 245 247 253 250
233 230 226 228 227 224 230 227 230 230 228 238 230 228 234 235 245 236 234 234 238 240 236 232 230 224 223 221 227 223 224 225 234 236 230 233 237 239 242 249 252 251 249
229 225 221 220 227 228 219 227 232 248 247 244 240 239 232 236 243 239 235 234 239 240 240 238 235 233 231 229 231 235 232 231 236 241 242 250 246 244 248 248 256 250 250